Location: Helsinki
(60.1699°N, 24.9384°E)
Time: 23:35:55
(UTC+02:00)

Transit 4A - Pass Details

Date: 01 November 2020
Orbit: 862 x 982 km, 66.8° (Epoch: 25 November)

Event Time Altitude Azimuth Distance (km) Brightness Sun altitude
Rises 17:58:25 0° 264° (W) 3,659 13.2 -12.1°
Reaches altitude 10° 18:01:03 10° 270° (W) 2,725 11.8 -12.4°
Maximum altitude 18:07:17 51° 346° (NNW) 1,217 8.6 -13.2°
Enters shadow 18:12:27 16° 59° (ENE) 2,362 9.5 -13.8°
